Location: El Bakhil
(32.7726°N, 5.5387°W)
Time: 21:49:08
(UTC+00:00)

N. Korean satellite - Pass Details

Date: 08 December 2021
Orbit: 447 x 490 km, 97.3° (Epoch: 27 January)

Event Time Altitude Azimuth Distance (km) Brightness Sun altitude
Rises 04:34:42 0° 37° (NE) 2,449 10.5 -32.3°
Reaches altitude 10° 04:37:50 10° 70° (ENE) 1,575 9.8 -31.7°
Maximum altitude 04:39:12 12° 94° (E) 1,455 9.8 -31.4°
Drops below altitude 10° 04:40:34 10° 118° (ESE) 1,574 9.9 -31.1°
Sets 04:43:41 0° 151° (SSE) 2,447 10.6 -30.5°
